WetterOnline ( https://www.wetteronline.de )

Wetter aktuell Frederiksberg

Aktuelles Wetter: Flakkebjerg (34m)

6-stündlich | Neueste Meldungen
Ortszeit Temperatur Wetter
Do, 05.08. 8:00 16.2° C leicht bewölkt
Do, 05.08. 2:00 10.7° C fast wolkenlos
Mi, 04.08. 20:00 18.4° C wolkenlos
Mi, 04.08. 14:00 19.3° C wolkenlos
Mi, 04.08. 8:00 14.9° C wolkenlos
Mi, 04.08. 2:00 11.8° C wolkenlos
Di, 03.08. 20:00 18.6° C wolkenlos
Di, 03.08. 14:00 17.2° C bewölkt
Ortszeit Temperatur Wetter
Do, 05.08. 13:00 23.0° C wolkig
Do, 05.08. 12:00 21.0° C bewölkt
Do, 05.08. 11:00 20.5° C wolkenlos
Do, 05.08. 10:00 19.9° C bewölkt
Do, 05.08. 9:00 18.3° C wolkenlos
Do, 05.08. 8:00 16.2° C leicht bewölkt
Ortszeit Relative Feuchte Sichtweite
Do, 05.08. 8:00 73% 35 km
Do, 05.08. 2:00 84% 50 km
Mi, 04.08. 20:00 50% 45 km
Mi, 04.08. 14:00 42% 40 km
Mi, 04.08. 8:00 72% 30 km
Mi, 04.08. 2:00 90% 45 km
Di, 03.08. 20:00 51% 45 km
Di, 03.08. 14:00 58% 50 km
Ortszeit Relative Feuchte Sichtweite
Do, 05.08. 13:00 40% 30 km
Do, 05.08. 12:00 46% 40 km
Do, 05.08. 11:00 45% 35 km
Do, 05.08. 10:00 54% 30 km
Do, 05.08. 9:00 59% 40 km
Do, 05.08. 8:00 73% 35 km
Ortszeit Niederschlagsmenge Niederschlagsart
Do, 05.08. 8:00 keine Meldung -
Do, 05.08. 2:00 0.0 l/m2 in 3 Std. -
Mi, 04.08. 20:00 0.0 l/m2 in 3 Std. -
Mi, 04.08. 14:00 0.0 l/m2 in 3 Std. -
Mi, 04.08. 8:00 0.0 l/m2 in 3 Std. -
Mi, 04.08. 2:00 keine Meldung -
Di, 03.08. 20:00 0.1 l/m2 in 12 Std. -
Di, 03.08. 14:00 0.1 l/m2 in 3 Std. Regenschauer
Ortszeit Niederschlagsmenge Niederschlagsart
Do, 05.08. 13:00 0.0 l/m2 in 1 Std. -
Do, 05.08. 12:00 0.0 l/m2 in 1 Std. -
Do, 05.08. 11:00 0.0 l/m2 in 1 Std. -
Do, 05.08. 10:00 0.0 l/m2 in 1 Std. -
Do, 05.08. 9:00 0.0 l/m2 in 1 Std. -
Do, 05.08. 8:00 keine Meldung -
Ortszeit Stärke Spitze Richtung
km/h Bft. km/h Grad Sektor
Do, 05.08. 8:00 7 2 - 80° O
Do, 05.08. 2:00 4 1 - 50° NO
Mi, 04.08. 20:00 9 2 - 300° NW
Mi, 04.08. 14:00 7 2 - 260° W
Mi, 04.08. 8:00 7 2 - 360° N
Mi, 04.08. 2:00 4 1 - 290° W
Di, 03.08. 20:00 9 2 - 280° W
Di, 03.08. 14:00 15 3 - 260° W
Ortszeit Stärke Spitze Richtung
km/h Bft. km/h Grad Sektor
Do, 05.08. 13:00 13 3 - 110° O
Do, 05.08. 12:00 7 2 - 80° O
Do, 05.08. 11:00 7 2 - 90° O
Do, 05.08. 10:00 11 2 - 90° O
Do, 05.08. 9:00 15 3 - 90° O
Do, 05.08. 8:00 7 2 - 80° O
Ortszeit Untergrenze Bedeckung Gattung
total tief tief mittel hoch
Do, 05.08. 8:00 3000 m 3/8 3/8 - - -
Do, 05.08. 2:00 2100 m 1/8 1/8 - - -
Mi, 04.08. 20:00 - 0/8 0/8 - - -
Mi, 04.08. 14:00 - 0/8 0/8 - - -
Mi, 04.08. 8:00 - 0/8 0/8 - - -
Mi, 04.08. 2:00 - 0/8 0/8 - - -
Di, 03.08. 20:00 - 0/8 0/8 - - -
Di, 03.08. 14:00 870 m 7/8 7/8 - - -
Ortszeit Bedeckungsgrad in Achtel und Wolkenuntergrenze
Do, 05.08. 13:00 5(1410m)
Do, 05.08. 12:00 3(1320m) 7(1500m)
Do, 05.08. 11:00 keine Wolken
Do, 05.08. 10:00 7(3000m)
Do, 05.08. 9:00 keine Wolken
Do, 05.08. 8:00 3(3000m)
Ortszeit Luftdruck NN (hPa) Tendenz (hPa in 3 Std.)
Do, 05.08. 8:00 1014 - 0,3
Do, 05.08. 2:00 1015 - 0,1
Mi, 04.08. 20:00 1015 0,0
Mi, 04.08. 14:00 1015 - 0,4
Mi, 04.08. 8:00 1015 + 0,7
Mi, 04.08. 2:00 1014 + 0,4
Di, 03.08. 20:00 1013 - 0,1
Di, 03.08. 14:00 1013 + 0,1
Ortszeit Luftdruck NN (hPa) Tendenz (hPa in 3 Std.)
Do, 05.08. 13:00 1013 - 0,9
Do, 05.08. 12:00 1013 - 0,6
Do, 05.08. 11:00 1013 - 0,5
Do, 05.08. 10:00 1013 - 0,3
Do, 05.08. 9:00 1014 - 0,3
Do, 05.08. 8:00 1014 - 0,3
Ortszeit Schneehöhe (cm)
Do, 05.08. 8:00 -
Do, 05.08. 2:00 -
Mi, 04.08. 20:00 -
Mi, 04.08. 14:00 -
Mi, 04.08. 8:00 -
Mi, 04.08. 2:00 -
Di, 03.08. 20:00 -
Di, 03.08. 14:00 -
Ortszeit Schneehöhe (cm)
Do, 05.08. 13:00 -
Do, 05.08. 12:00 -
Do, 05.08. 11:00 -
Do, 05.08. 10:00 -
Do, 05.08. 9:00 -
Do, 05.08. 8:00 -
Link zu dieser Seite / Seite empfehlen

Das Wetter in ...